Theta_e
324 324 322 321 321 320 319 319 318 316 314 311 310 309 307 306 306 305 302 299 295 295 294 293 291 290 291 292 292 292 291 292 292 292 293 292 293 297 312 317 319 322 324 327 328 326 326 327 326 325 325 324 323 323 324 324 323 321 322 321 321 320 319 318 318 318 319 319 319 319 320 320 321 321 322 321 322 324 325 326 326 327 328 329 330
324 322 321 320 319 319 318 318 317 316 315 313 309 309 308 304 304 303 301 299 296 295 295 293 292 292 291 292 292 292 291 292 292 292 292 292 293 296 309 314 318 321 323 324 327 327 327 327 327 326 325 325 324 323 324 324 322 321 320 321 321 319 319 318 318 317 318 319 319 319 319 319 320 320 320 320 320 321 322 323 324 323 325 326 326
324 322 321 320 319 318 317 317 316 315 315 314 307 310 307 308 307 305 304 301 299 294 294 293 292 292 291 292 293 291 291 291 293 293 293 293 293 294 298 310 315 319 322 323 324 326 327 327 326 327 326 325 324 323 323 325 323 321 320 321 320 320 319 318 317 317 317 318 318 318 318 318 318 319 319 319 319 319 320 321 321 321 321 323 323
324 322 321 320 318 317 317 315 316 315 314 314 311 307 307 305 303 303 302 300 299 293 292 292 291 292 290 291 291 291 291 291 292 293 293 293 293 294 294 299 309 316 318 322 324 325 326 326 327 326 327 325 324 324 323 324 323 321 321 321 320 320 319 318 317 317 317 318 318 317 317 317 318 318 318 318 318 318 318 319 319 320 320 320 320
322 322 320 320 318 317 315 315 316 315 314 312 310 306 305 303 302 300 300 298 297 294 292 290 290 291 290 292 290 291 290 290 292 293 294 293 293 293 293 296 297 306 311 316 322 323 324 324 325 326 326 326 326 325 323 322 324 322 322 320 321 321 319 317 316 316 317 317 318 318 317 317 317 318 317 317 317 317 318 318 318 318 318 318 318
321 319 319 319 318 317 316 315 315 314 313 311 311 306 305 303 303 301 301 298 298 295 293 292 290 289 290 290 289 291 289 290 291 293 293 293 295 293 295 295 295 297 297 308 313 319 322 322 323 323 325 325 325 325 324 322 324 323 323 321 320 322 319 317 317 317 317 317 317 317 317 316 316 316 317 317 316 317 317 317 318 318 317 317 317
321 321 319 318 317 316 315 316 314 311 312 311 311 306 305 305 301 302 296 296 295 295 293 293 291 292 291 290 291 290 288 291 289 290 292 293 292 294 296 295 296 298 298 295 302 307 316 321 322 322 322 323 324 324 325 324 324 324 324 323 321 321 320 319 318 317 317 318 317 316 316 316 316 316 316 317 316 316 316 316 316 316 317 317 316
317 316 318 317 317 316 316 312 310 310 311 309 308 306 305 303 300 302 299 297 295 296 292 291 289 290 289 289 289 290 289 289 289 290 291 290 294 295 296 295 295 296 299 296 297 299 310 316 320 321 321 321 322 322 323 324 323 323 322 321 321 320 320 320 318 317 317 317 316 315 315 315 316 316 316 316 316 316 316 316 316 316 316 316 316
317 316 317 316 315 315 312 310 308 309 309 308 308 307 305 304 298 299 302 301 295 295 291 290 290 289 288 288 287 288 289 289 289 290 291 290 291 294 295 295 294 300 296 295 295 294 303 311 315 316 316 318 320 321 322 323 323 322 322 321 321 320 319 318 318 318 317 316 316 315 315 315 315 315 316 315 315 315 315 315 315 315 315 315 315
318 317 317 317 316 315 312 309 309 309 308 307 308 304 303 304 301 296 298 299 296 294 293 290 289 289 288 287 287 287 287 288 289 292 290 290 290 292 295 294 293 295 294 293 293 294 295 303 310 311 309 313 318 320 322 322 323 322 322 321 320 320 320 318 317 317 316 316 315 315 315 315 315 315 315 315 315 315 315 314 314 314 314 314 314
314 314 316 314 314 314 313 311 310 310 309 307 305 303 302 301 303 298 293 295 297 294 294 290 289 288 288 288 286 286 287 287 290 289 289 289 290 293 291 294 294 294 294 292 293 293 295 294 294 293 293 308 315 319 320 321 321 323 322 321 320 320 320 317 316 316 316 316 315 315 314 315 315 314 314 314 314 314 314 314 314 313 312 313 314
311 311 312 311 311 312 311 309 309 309 308 306 305 303 303 301 301 301 296 293 291 290 288 289 288 287 287 287 285 285 286 287 287 288 289 289 289 289 290 292 292 294 292 293 294 293 294 294 293 294 294 300 309 313 316 317 317 320 322 321 321 320 320 318 317 316 315 315 315 314 314 314 315 314 313 313 313 314 314 313 312 312 313 314 314
311 312 311 310 310 309 309 307 307 307 308 308 307 305 304 303 301 299 298 293 292 290 290 290 288 287 285 285 287 286 288 288 287 287 288 288 287 288 289 290 290 290 293 292 292 292 293 294 294 294 293 292 297 305 309 311 312 315 319 321 321 320 320 319 317 316 315 315 314 314 314 314 314 313 313 313 313 313 312 312 312 313 313 313 314
308 309 309 309 308 307 307 307 306 306 305 303 302 300 300 299 297 294 294 296 295 291 291 292 288 287 287 284 283 285 288 287 287 288 288 287 288 289 289 290 290 289 289 290 291 291 292 293 292 293 292 292 293 295 296 300 303 311 316 319 321 321 321 320 318 317 316 315 315 314 314 314 313 313 313 313 312 312 312 313 313 313 313 313 313
306 306 307 306 306 306 305 305 305 303 304 303 302 301 299 299 298 300 295 292 292 291 291 293 292 286 284 284 282 283 284 285 287 288 288 287 287 288 289 289 290 289 288 288 289 290 290 290 290 291 291 291 291 291 294 296 296 301 308 312 316 320 320 320 320 319 317 316 315 314 314 313 313 313 313 313 312 312 312 313 312 313 313 312 313
302 302 303 303 304 304 304 303 303 303 303 303 302 301 300 299 299 298 297 294 291 291 291 292 290 291 289 287 282 281 282 283 283 284 286 288 287 288 288 289 289 288 286 287 288 288 288 288 288 289 290 289 289 289 291 290 294 298 299 302 306 311 317 321 322 323 321 318 316 315 314 314 314 313 313 312 312 312 312 312 312 313 313 312 312
296 297 297 299 300 301 301 301 301 301 301 301 301 301 300 299 298 298 297 299 297 293 292 291 291 292 294 285 284 284 281 280 279 282 281 285 286 287 287 288 288 288 288 288 287 287 287 287 287 287 287 288 287 287 287 288 289 292 294 295 297 304 310 317 319 319 321 322 318 316 315 314 314 313 312 312 312 312 312 313 312 312 312 312 312
292 292 293 294 296 297 298 299 300 300 299 299 299 299 299 299 298 297 296 295 295 295 292 292 292 292 290 289 290 288 285 282 283 282 279 283 283 283 286 286 285 287 287 287 287 287 287 287 286 287 287 287 287 286 286 286 287 287 289 291 300 303 305 309 315 318 319 322 320 317 317 315 313 313 312 312 312 312 312 312 311 312 312 312 312
290 291 291 291 292 293 294 295 296 296 296 297 298 298 298 298 298 297 296 296 295 293 294 293 292 291 291 291 289 287 286 287 287 283 285 280 281 282 285 284 285 285 287 287 287 287 287 287 287 287 286 287 287 287 286 286 290 291 295 297 301 304 306 307 308 313 317 320 321 318 317 316 315 313 312 311 312 311 311 311 311 311 311 311 311
289 289 289 290 290 290 291 292 292 293 293 294 295 295 295 297 297 297 296 295 295 293 294 293 292 292 291 291 290 289 287 288 286 287 285 283 284 281 281 283 283 285 286 287 287 287 287 287 287 286 286 286 287 287 287 286 286 287 290 297 301 304 305 306 307 309 311 315 319 322 320 318 317 315 313 312 311 311 311 311 311 311 311 311 311
288 288 288 288 289 289 290 290 291 291 291 292 293 294 294 295 295 295 295 295 294 294 293 293 292 292 291 290 290 290 289 288 286 286 286 285 285 284 284 280 281 283 285 286 287 287 288 288 287 287 287 287 287 287 287 286 286 287 290 296 300 304 305 306 306 307 309 310 313 316 320 321 318 316 314 313 312 312 311 310 311 311 311 311 311
287 287 287 287 288 288 288 289 289 289 290 290 291 291 291 292 293 293 293 293 294 294 293 293 293 293 292 292 290 289 288 287 286 285 286 286 284 285 284 283 285 285 284 285 286 287 287 287 286 286 286 287 287 287 286 286 287 287 289 295 298 301 303 304 305 306 308 308 309 311 315 318 319 318 315 314 313 312 311 310 310 310 310 311 311
285 285 286 286 286 287 287 287 288 288 288 289 289 289 290 290 290 290 291 292 292 293 293 293 292 292 291 291 290 290 290 289 288 286 286 285 285 285 284 284 284 285 284 284 286 286 286 285 286 286 287 287 287 286 286 286 288 289 292 294 297 299 301 303 304 305 307 309 309 310 311 312 315 315 315 315 314 313 312 311 310 310 311 311 311
284 284 284 284 285 285 286 286 286 287 287 288 288 288 289 289 289 289 289 289 290 290 291 291 292 292 291 291 291 291 291 290 290 290 288 287 287 287 287 285 284 283 283 282 282 284 285 285 286 287 287 287 287 287 287 287 288 291 290 293 296 299 302 304 304 304 306 308 310 310 310 312 314 314 314 314 314 314 313 312 310 310 310 311 311
283 283 283 283 284 284 284 284 285 286 286 287 287 287 288 288 288 288 288 288 288 287 288 289 290 290 290 291 291 291 290 291 291 290 289 289 287 286 287 286 285 287 283 280 283 281 284 285 286 286 286 286 287 286 286 286 287 289 292 291 295 297 299 301 302 303 305 307 309 309 310 313 313 313 313 313 313 313 313 312 311 311 311 311 311
283 283 284 284 284 284 284 284 284 285 286 286 286 287 287 287 287 287 287 287 287 286 286 286 287 288 289 289 289 290 290 290 289 289 288 287 286 286 286 286 286 286 285 282 281 284 283 283 285 286 286 286 286 286 286 286 287 290 291 289 291 296 298 300 301 302 304 307 309 309 310 310 312 312 311 313 313 312 313 313 312 311 311 311 311
283 284 285 284 284 284 284 283 284 284 284 284 285 285 286 286 286 286 286 287 286 286 286 286 286 286 286 286 287 287 288 289 288 288 289 288 288 287 286 284 285 286 286 285 283 283 286 282 283 284 285 286 285 286 286 286 288 290 290 289 288 292 296 299 301 302 303 305 308 308 308 308 309 311 310 311 312 312 312 312 312 312 311 311 311
282 283 284 284 284 284 284 284 284 284 283 283 283 284 285 284 284 285 285 287 286 286 286 286 286 286 285 285 285 285 286 286 286 287 287 288 287 287 286 285 283 282 285 285 284 284 283 285 282 283 284 285 286 286 287 287 286 290 290 288 288 289 294 298 301 302 302 304 307 307 307 307 308 309 309 309 309 310 310 310 310 309 309 309 309
282 283 283 283 283 283 283 283 283 283 283 283 283 283 283 283 283 284 283 285 285 285 286 286 286 286 286 285 285 285 285 285 285 285 285 285 286 286 286 286 286 283 282 283 284 285 282 283 284 283 284 285 285 286 286 286 287 288 286 287 287 287 291 295 299 301 302 304 305 307 307 306 307 307 307 307 307 307 307 307 308 308 308 308 309
281 282 282 282 282 283 282 282 282 282 282 283 282 282 283 282 282 283 283 284 284 284 284 285 285 285 286 286 286 285 285 285 285 285 284 284 283 284 285 285 285 284 283 282 283 286 284 281 283 284 282 283 285 285 285 285 288 288 286 286 287 287 292 294 297 299 302 304 304 306 307 306 306 305 305 305 305 306 306 305 306 307 307 308 309
280 279 279 279 280 280 280 280 280 281 281 282 282 282 282 281 282 282 282 283 282 282 283 284 284 285 284 285 285 285 286 285 285 285 285 284 284 283 283 283 283 283 283 283 281 284 285 285 282 283 284 283 284 284 284 284 286 288 286 285 286 289 291 292 294 296 300 301 302 304 306 306 305 305 304 304 305 305 305 305 305 306 306 306 308
279 279 279 278 279 278 279 279 279 279 279 280 281 281 281 281 281 281 281 281 281 281 281 282 283 284 283 283 284 284 285 285 285 285 285 285 284 284 283 283 283 282 282 281 281 281 284 285 283 282 282 283 283 282 283 284 285 288 285 285 286 288 288 288 291 294 296 299 301 303 304 305 305 304 303 303 304 304 304 304 304 304 304 304 305
278 279 278 278 279 279 278 279 278 278 279 279 279 279 279 280 280 280 281 281 280 280 281 281 281 281 282 281 282 283 284 283 284 284 284 285 284 284 284 283 283 283 282 281 280 282 283 283 284 284 282 282 282 282 283 283 283 284 286 285 285 285 285 286 287 291 294 297 299 301 302 304 304 304 303 302 302 302 302 303 303 302 303 303 304
278 278 278 278 278 278 278 278 279 279 279 279 278 278 278 278 279 280 280 280 279 279 280 279 280 281 281 281 281 282 282 282 282 283 283 284 284 284 284 283 283 283 283 281 281 281 281 283 284 283 282 282 283 281 283 283 283 283 283 284 284 284 284 285 286 286 292 295 297 299 301 302 303 304 303 301 301 302 301 302 302 301 302 302 302
279 278 278 278 278 278 278 278 278 278 278 278 278 278 278 278 278 278 279 278 278 278 279 279 279 279 279 280 280 281 282 281 281 281 282 282 283 283 283 284 283 283 283 283 282 281 281 282 283 283 283 282 282 283 282 283 284 284 283 283 283 284 285 284 285 285 290 293 296 298 300 301 302 302 302 302 301 300 300 300 301 301 301 301 301
278 278 278 278 278 277 277 278 278 277 278 278 278 278 278 278 278 278 278 278 278 278 278 278 279 279 278 279 279 279 279 279 280 280 280 281 281 282 282 282 283 283 283 283 283 282 282 281 282 282 283 282 282 281 282 282 282 282 283 283 282 283 283 284 284 284 287 291 293 295 298 299 300 300 301 301 301 300 300 299 300 300 300 300 301
276 276 277 276 276 276 277 277 277 277 277 277 277 277 278 277 277 277 277 277 277 277 277 278 280 278 278 278 279 279 279 278 279 279 279 279 280 281 281 281 281 282 283 283 283 283 281 281 281 282 282 282 282 281 281 281 281 281 282 282 282 282 283 283 284 284 287 290 291 293 295 297 298 299 300 301 301 300 299 299 299 299 299 299 299
276 275 276 276 276 276 276 276 276 276 276 276 276 277 277 277 277 277 277 277 277 277 277 277 277 278 278 278 279 279 279 278 279 279 279 279 279 279 279 280 280 281 281 281 282 281 281 281 281 281 281 280 281 282 281 281 281 281 281 281 281 281 282 282 282 283 284 285 285 288 291 294 296 298 299 300 300 300 299 299 298 298 298 297 298
275 275 275 275 275 275 275 275 275 275 276 276 276 276 276 276 276 276 276 276 277 277 277 278 278 278 278 278 278 279 279 279 279 279 279 279 279 279 279 279 280 280 280 280 280 281 281 281 281 281 281 281 280 281 281 281 281 281 282 281 281 281 281 282 282 283 283 284 286 288 288 289 292 293 296 298 299 299 299 298 298 298 297 297 297
274 274 274 274 274 274 274 274 274 275 275 275 275 275 275 275 275 276 276 276 277 277 277 278 278 278 278 278 278 278 279 279 279 279 280 279 279 279 279 279 279 279 279 279 279 279 280 280 280 280 280 280 279 279 279 278 279 279 280 280 281 282 282 282 282 283 283 283 282 283 287 288 290 291 294 296 297 298 298 298 297 296 295 296 297
272 272 272 272 272 272 272 272 272 273 273 273 274 274 275 275 276 276 276 277 277 276 277 277 278 278 278 278 278 279 279 281 283 283 283 283 281 279 280 280 279 279 278 279 279 279 279 279 279 280 280 280 280 279 278 278 278 280 281 281 281 282 282 282 282 283 283 282 282 282 282 283 284 285 286 288 291 294 295 296 295 294 295 296 297
269 270 270 270 270 270 270 270 270 271 271 272 273 276 277 276 275 276 276 276 276 276 276 276 276 277 277 278 278 281 281 282 282 283 283 284 284 283 281 281 280 279 278 278 278 278 278 278 278 279 278 279 280 280 279 280 280 280 280 280 280 281 281 281 282 282 283 282 281 280 281 282 282 283 284 285 287 290 292 293 293 294 294 296 297
268 268 268 268 268 268 268 268 268 268 269 270 273 275 277 278 276 275 275 275 275 275 275 275 275 276 276 277 277 278 279 280 279 281 282 283 283 283 284 284 284 282 280 279 278 278 278 277 278 279 278 278 280 281 280 280 280 280 280 281 281 281 280 279 279 282 283 283 281 281 281 281 282 281 282 284 285 287 289 290 294 295 295 296 296
266 266 266 266 266 266 266 266 266 266 267 270 273 274 275 276 276 274 274 273 274 274 274 274 274 274 275 275 276 277 277 277 277 278 279 281 282 282 283 283 284 285 285 282 280 280 279 278 278 278 278 279 279 280 280 280 279 279 279 280 280 280 280 280 280 280 281 283 281 281 281 282 281 281 281 282 284 285 287 290 293 295 296 296 296
264 264 264 264 264 265 265 264 264 265 265 268 271 273 274 275 275 274 272 273 273 273 273 273 273 273 274 274 274 275 275 277 277 276 276 276 279 281 281 281 282 283 284 285 285 283 282 281 279 279 279 279 279 280 281 281 280 279 279 279 279 280 281 281 281 282 280 282 282 281 280 282 281 280 280 282 283 284 285 290 292 293 295 296 296
263 262 262 263 263 263 263 263 263 263 263 266 271 272 273 274 275 274 271 271 271 271 271 271 271 271 271 272 272 272 273 274 275 275 275 276 276 276 276 276 277 279 281 282 283 283 283 282 281 281 282 282 280 281 282 282 281 279 279 279 279 280 280 281 283 283 281 282 281 281 280 281 281 280 280 281 282 282 283 287 290 292 293 295 295
261 261 261 261 261 262 261 261 261 261 262 268 270 271 272 273 274 274 270 270 269 269 269 269 269 270 270 271 271 271 271 272 273 274 274 274 274 274 274 274 274 275 276 277 278 279 280 280 281 281 282 283 283 283 283 283 283 283 282 281 281 281 281 282 282 283 282 282 282 282 279 283 281 280 280 281 281 281 283 286 289 291 292 293 294
260 261 261 261 260 260 260 260 260 260 261 268 269 270 272 273 274 270 268 268 268 268 268 269 269 269 270 270 270 270 270 271 273 276 276 274 274 273 273 274 274 275 276 279 281 282 281 280 280 280 281 282 285 284 284 284 283 283 283 282 280 280 281 280 280 281 281 281 281 281 280 281 281 280 281 281 281 281 282 282 287 290 291 292 293
260 259 259 259 260 260 259 260 259 260 260 264 268 270 271 272 271 267 267 267 267 267 267 268 269 269 269 270 270 270 271 271 274 276 276 276 273 273 273 273 274 274 274 276 279 281 283 284 285 285 286 287 287 287 287 288 287 284 280 279 280 280 279 279 280 280 280 280 279 281 281 280 281 279 281 279 280 280 280 281 282 287 290 291 292
258 258 259 259 259 259 259 259 259 259 260 263 268 269 270 271 270 267 267 266 266 267 267 268 268 268 269 271 271 269 269 269 273 275 276 275 273 273 272 272 272 273 274 275 276 277 280 281 282 283 284 286 286 287 288 288 288 288 283 279 280 281 279 280 279 280 281 281 279 281 279 279 282 279 279 278 279 279 280 280 281 282 286 289 291
258 258 258 258 258 258 258 259 261 260 260 262 266 268 270 270 269 267 267 267 266 266 266 266 267 268 268 269 271 271 271 272 275 276 276 275 273 273 273 272 271 271 273 274 275 275 276 276 277 279 280 282 282 282 283 286 287 287 286 284 283 281 279 280 280 280 279 280 282 281 278 278 281 279 280 276 277 279 279 280 280 280 281 283 285
Wind_Speed
4 4 2 4 4 4 4 4 4 3 3 3 3 4 3 4 4 5 4 4 3 3 1 3 3 2 2 3 2 1 2 2 2 2 2 2 3 3 4 5 5 6 7 8 9 8 10 10 9 7 8 8 7 8 8 9 7 4 6 4 5 4 2 2 5 6 5 4 3 3 3 3 4 3 4 3 2 1 1 2 5 5 9 9 6
5 4 4 4 3 2 3 4 4 3 4 5 3 4 5 3 3 3 3 3 3 3 1 4 4 3 3 3 3 4 3 3 3 3 2 2 2 3 5 5 5 6 7 8 9 9 10 10 10 9 9 9 7 8 9 9 6 6 4 6 4 5 5 3 4 5 6 6 5 3 4 4 4 3 2 3 3 5 2 3 1 5 4 6 8
5 5 4 4 4 4 4 3 4 4 4 5 3 4 4 5 6 6 5 4 5 2 2 3 4 4 3 3 4 3 3 3 2 2 2 3 3 3 3 5 5 6 6 8 9 9 10 10 10 11 10 10 8 8 9 10 8 5 4 7 6 7 5 5 5 5 6 6 7 3 3 5 3 4 3 3 4 5 4 3 3 1 3 3 6
6 6 5 5 5 5 4 4 5 4 5 4 5 4 4 3 2 2 2 3 4 2 1 2 4 4 3 4 3 3 4 3 3 3 3 3 3 4 2 2 4 4 4 5 7 9 10 10 11 11 11 10 9 9 10 11 10 7 9 9 8 6 8 6 3 5 5 8 6 4 4 5 5 5 4 4 5 5 5 5 5 7 2 1 2
5 6 7 6 6 5 5 5 5 5 5 4 4 3 3 3 2 2 1 1 1 1 1 0 2 4 3 4 3 4 3 3 4 3 4 4 4 3 3 2 2 3 3 3 4 5 6 8 9 11 12 11 11 11 9 10 13 9 10 7 8 8 8 4 4 7 6 8 8 6 5 6 5 6 5 5 5 5 5 6 5 4 4 1 1
5 4 4 5 6 6 7 6 6 5 3 4 5 5 4 4 4 3 3 3 4 3 2 4 4 3 3 4 3 4 3 4 4 5 4 4 4 4 5 4 3 2 1 2 3 3 3 3 4 6 9 11 12 12 12 10 13 11 12 10 8 12 7 4 7 7 7 8 7 7 6 7 7 7 7 6 5 6 6 6 6 5 5 3 2
7 8 7 6 5 5 5 6 5 3 5 5 5 4 4 5 5 5 2 2 3 3 3 4 4 5 4 3 5 5 3 5 3 4 4 4 3 4 5 4 4 4 3 2 2 2 3 2 2 3 5 7 10 10 12 12 12 12 11 13 8 9 9 9 9 8 7 8 7 7 7 7 8 7 8 7 6 6 7 6 6 5 5 5 4
4 3 4 5 6 6 7 4 4 4 5 4 5 5 5 4 4 5 5 4 3 5 3 4 3 5 4 3 4 4 5 5 4 4 5 3 5 4 4 4 4 4 4 3 3 1 2 2 2 2 2 3 4 8 10 10 11 12 9 7 8 11 11 11 9 9 8 8 7 6 6 7 8 8 8 8 6 7 7 7 5 2 4 5 5
5 5 5 5 6 6 6 5 4 5 5 5 5 5 5 5 3 4 5 6 5 5 4 4 5 4 2 3 3 3 4 4 5 5 4 4 4 5 5 5 4 4 3 3 3 2 2 2 2 2 3 4 4 4 8 11 12 11 11 11 12 12 11 8 6 9 10 8 7 6 6 8 8 9 8 8 8 8 8 8 8 8 7 8 8
5 5 5 5 5 5 3 4 5 5 5 5 5 2 3 4 5 4 5 5 6 6 6 4 3 4 4 4 4 2 4 4 5 4 5 5 5 5 6 4 4 5 4 4 3 3 3 4 3 2 3 4 5 5 5 6 8 12 13 12 12 12 12 13 10 10 10 10 9 7 7 9 9 9 9 9 9 9 9 9 9 9 9 9 9
3 2 3 4 4 4 4 5 6 6 5 5 3 4 4 5 6 5 3 4 3 4 4 4 4 4 4 4 3 4 4 4 4 5 5 5 6 6 3 5 4 5 5 4 4 4 4 4 3 3 3 4 5 6 6 7 5 7 12 13 13 13 13 11 10 11 10 11 10 10 9 9 10 10 10 10 9 9 10 10 9 10 10 10 10
5 5 4 4 2 2 1 2 3 3 4 5 6 7 9 8 8 7 5 2 0 2 2 3 1 1 4 4 3 4 5 5 4 5 5 5 6 4 5 5 6 6 4 5 5 4 4 4 4 5 4 5 6 5 5 4 4 6 6 11 14 13 14 13 12 11 11 11 11 11 11 11 11 12 11 11 10 10 11 11 11 11 11 11 10
8 7 7 6 5 5 5 4 4 1 2 4 3 4 2 2 2 2 5 4 3 2 2 3 1 3 2 4 6 4 5 4 5 5 6 6 3 5 6 6 7 5 6 5 5 4 5 5 5 5 5 4 6 6 5 5 5 7 8 7 11 14 15 15 13 12 12 12 12 12 12 12 12 12 12 12 11 11 12 12 12 12 12 11 10
10 9 9 8 7 6 6 6 5 4 4 5 4 3 2 0 2 2 1 5 4 3 3 5 0 5 5 5 4 5 6 5 6 7 7 5 5 6 7 6 7 6 4 5 5 5 6 6 5 5 5 5 5 5 5 5 5 8 9 10 10 11 13 15 15 14 14 13 13 13 13 13 13 13 13 13 12 12 12 13 13 13 12 11 12
11 10 10 9 8 7 6 4 4 4 4 4 3 3 3 2 1 2 1 0 0 2 5 7 4 2 1 3 5 4 4 3 5 7 6 6 6 7 7 6 8 6 5 5 6 6 6 4 5 5 6 5 6 5 5 5 6 8 9 10 10 11 13 15 16 16 15 14 14 13 14 14 13 13 13 13 13 12 13 13 13 13 13 12 12
12 11 9 10 9 9 7 7 6 4 3 4 4 3 2 2 2 3 3 2 2 4 4 4 3 4 3 5 3 1 8 4 4 5 6 8 7 9 6 8 8 5 4 7 7 6 6 5 6 6 5 5 5 5 6 6 8 10 10 10 9 11 13 14 16 16 17 17 16 15 14 14 14 14 13 14 14 13 13 13 14 14 13 13 12
11 12 11 10 10 9 9 8 7 6 5 5 4 2 0 1 1 2 3 4 5 2 0 3 5 5 2 2 2 1 5 6 3 6 1 2 6 8 6 6 6 6 5 7 5 6 6 6 7 5 6 6 6 6 6 6 6 6 8 10 11 10 12 15 17 19 17 16 16 16 15 15 15 15 14 15 14 14 13 14 14 14 13 13 13
11 12 12 10 11 10 9 9 9 7 6 5 4 4 3 2 2 2 3 4 4 4 3 2 6 6 4 2 1 4 2 2 3 9 3 5 4 3 6 5 4 4 5 6 7 7 6 7 5 7 7 6 6 6 6 6 6 7 7 8 12 12 12 14 17 19 19 18 18 18 17 16 16 16 16 15 15 14 14 14 14 14 14 14 14
11 11 11 11 10 10 9 8 8 8 7 7 7 7 6 4 2 1 3 3 1 5 6 5 1 4 6 7 4 1 1 2 7 3 10 4 1 4 6 5 6 5 7 8 8 7 7 6 7 8 7 6 6 7 6 7 7 8 10 11 14 15 15 15 15 17 20 20 20 19 19 18 17 16 17 16 15 16 14 14 14 14 15 15 14
11 11 11 10 10 10 9 9 9 8 7 7 7 7 7 6 6 4 3 3 3 4 6 5 5 4 4 8 8 4 3 2 3 7 7 10 11 3 3 6 4 6 8 9 9 9 9 8 8 7 6 6 7 7 7 7 7 7 8 12 14 16 16 16 16 15 17 19 19 20 19 20 19 17 17 17 17 17 16 15 14 15 15 15 15
12 12 12 11 10 10 10 10 9 8 7 8 7 7 8 8 9 8 7 5 3 4 4 6 5 6 5 4 5 7 5 5 3 1 6 8 14 8 9 4 3 6 8 9 8 8 9 9 7 7 7 8 8 8 8 7 8 7 7 12 15 17 18 18 17 16 16 16 18 19 20 19 21 20 18 18 18 18 16 16 15 16 16 16 16
10 11 12 12 11 10 10 10 9 8 8 7 8 9 8 7 7 6 6 6 5 4 5 5 5 5 4 5 4 3 3 3 4 5 6 8 13 12 8 7 13 7 6 8 10 10 9 8 7 7 8 9 8 8 8 9 8 7 9 13 14 16 17 17 18 18 17 17 16 18 19 21 21 21 21 19 19 18 17 17 17 17 17 17 17
8 9 10 10 10 10 10 9 8 8 9 9 8 7 6 6 5 5 6 7 6 7 6 5 5 6 6 4 6 6 7 6 5 4 7 7 6 10 7 8 10 13 6 7 8 8 7 6 8 9 10 9 9 8 8 9 9 10 13 12 14 16 17 18 18 18 19 18 19 19 19 20 23 23 21 20 19 19 19 17 17 17 18 18 17
8 8 10 9 8 8 8 9 9 9 9 7 8 7 7 6 6 6 5 5 5 6 6 7 7 5 6 5 5 6 6 7 6 6 5 7 8 12 10 6 7 7 6 6 5 7 7 9 9 10 10 9 9 8 9 9 10 15 13 14 15 17 19 20 20 19 19 19 18 19 19 20 18 15 20 20 20 20 19 18 18 18 18 19 18
9 10 9 9 7 9 9 9 8 8 7 8 7 8 8 7 7 7 7 7 6 5 5 6 6 6 7 7 6 5 6 5 5 6 6 7 7 11 10 5 12 11 4 2 5 2 8 8 8 9 9 9 8 8 9 8 9 13 15 11 17 17 19 20 20 20 19 19 19 19 19 19 18 17 20 21 21 20 19 18 17 18 19 20 20
8 9 7 7 8 7 7 7 6 6 7 7 7 6 7 7 6 8 7 6 6 6 5 5 5 5 5 5 6 6 6 5 6 5 6 6 8 9 10 8 9 12 5 3 2 4 3 4 7 9 8 8 9 8 8 10 10 15 17 12 12 17 18 18 20 20 20 20 19 17 17 17 17 18 19 21 21 19 19 18 18 18 19 20 21
7 6 7 8 8 8 8 8 8 8 7 7 7 7 6 6 6 6 6 5 7 6 6 6 7 7 7 6 6 5 5 5 5 5 5 6 7 8 7 12 13 11 10 4 5 9 10 4 5 7 8 8 8 8 9 9 12 15 13 11 10 15 17 20 21 22 21 21 19 17 18 17 16 18 18 20 21 20 19 19 19 19 20 20 22
6 7 8 8 9 10 9 9 8 8 8 8 8 7 7 6 6 5 6 4 6 7 6 5 6 6 6 6 6 7 6 6 5 5 5 5 6 5 6 8 10 15 11 12 9 9 5 7 3 7 7 9 9 9 11 11 9 13 14 9 9 10 16 20 22 23 22 20 19 18 18 17 17 18 18 18 18 19 20 20 20 20 18 18 18
6 5 7 7 7 8 8 8 9 8 9 8 8 7 7 6 6 7 6 5 5 5 5 5 5 4 5 5 5 6 7 7 6 5 6 5 5 5 5 7 7 10 13 12 14 10 4 7 5 4 8 8 8 8 8 8 11 12 8 9 10 10 12 20 22 22 22 23 21 20 18 18 17 16 18 18 18 18 19 19 18 17 19 18 19
3 4 4 6 6 7 7 7 7 7 8 8 8 8 8 7 7 6 5 5 6 5 4 3 5 4 4 4 4 5 5 6 6 6 6 6 6 6 6 6 6 10 10 12 17 8 8 2 4 5 3 7 7 7 7 8 11 12 8 9 10 10 14 19 20 21 22 23 22 21 23 20 17 17 17 18 18 20 21 21 21 21 21 21 19
5 6 6 6 6 6 5 5 6 6 6 7 8 8 8 8 8 8 7 6 6 7 6 5 5 4 5 5 5 5 5 5 6 6 5 5 6 6 6 5 7 8 9 9 13 10 2 9 5 6 6 5 5 6 4 5 8 10 8 8 9 12 16 13 17 19 21 23 21 20 22 25 24 21 20 20 21 21 22 22 23 22 22 22 22
6 6 7 7 7 8 7 7 7 7 6 6 6 6 6 6 7 8 9 10 10 9 8 5 4 5 6 6 6 6 6 4 5 5 6 5 5 6 6 6 7 7 7 8 12 18 5 9 6 5 4 7 5 4 6 6 6 9 7 8 10 13 10 9 14 19 20 22 22 22 22 23 25 25 24 23 23 24 23 23 24 24 23 23 23
4 6 6 7 7 7 7 7 7 7 7 8 6 6 6 7 6 6 7 8 9 9 10 13 9 5 5 6 7 7 6 5 6 6 6 6 6 6 6 6 7 6 6 8 12 16 9 5 8 7 4 3 5 5 8 7 7 7 8 8 8 8 9 8 9 16 19 21 22 23 23 22 23 24 24 25 23 24 24 24 24 24 23 23 23
5 6 6 5 5 6 6 8 8 9 8 8 8 7 8 8 8 5 6 7 7 8 7 8 10 10 10 9 9 7 5 6 6 6 6 6 6 6 6 6 7 7 6 8 11 11 16 4 8 5 6 3 8 3 6 8 9 6 8 8 7 8 8 8 8 9 16 20 22 23 23 24 24 24 24 25 25 23 24 24 23 22 23 23 23
5 5 6 6 7 8 8 9 9 9 9 9 8 8 8 9 10 9 8 7 8 8 9 9 8 7 9 10 12 11 7 7 7 7 6 7 6 6 8 6 7 8 7 8 10 13 14 12 5 9 6 5 8 7 6 8 7 6 7 7 8 8 8 8 8 7 12 19 21 23 24 24 23 23 26 25 24 26 24 24 24 22 22 22 23
7 7 5 6 6 6 7 8 8 8 10 10 10 8 8 8 9 10 10 9 9 8 9 9 9 9 9 10 10 9 9 11 11 8 7 6 7 7 7 7 7 8 8 7 9 10 11 13 8 7 7 7 8 6 6 6 6 7 7 7 5 7 7 7 9 9 9 16 20 22 23 24 24 24 24 25 24 25 26 25 23 23 22 22 21
4 5 6 4 5 5 6 7 8 8 8 9 9 9 8 7 8 9 9 9 9 10 10 10 9 10 10 10 11 9 8 10 10 10 8 8 8 7 8 8 7 7 7 7 9 9 11 13 12 6 7 7 7 6 4 6 7 7 7 8 7 7 7 6 6 7 8 15 18 20 21 23 24 24 25 25 25 26 27 26 25 23 22 22 22
5 4 5 5 5 7 7 7 8 8 8 8 8 9 9 9 9 9 9 9 10 10 11 11 10 9 10 11 11 10 9 10 11 10 10 10 9 8 9 9 8 7 8 8 8 9 10 12 11 11 6 8 8 8 5 6 7 8 8 7 5 5 6 6 8 7 6 7 8 10 14 18 21 24 24 25 27 25 26 27 27 26 22 22 22
7 7 7 7 7 6 8 8 8 9 9 8 8 8 9 8 8 9 10 11 11 10 10 11 11 10 10 10 11 11 11 11 11 11 11 11 10 11 10 10 8 8 9 9 8 9 10 11 11 9 9 7 7 11 6 6 8 8 9 7 8 5 6 8 9 6 6 8 9 13 12 11 13 14 19 23 28 25 26 27 28 27 24 22 22
7 7 8 9 9 8 9 9 9 8 9 9 8 8 8 8 9 10 10 11 12 12 12 12 11 12 12 11 11 11 11 11 11 11 10 10 9 10 10 9 8 9 9 9 8 8 10 10 10 11 7 8 6 6 3 0 5 7 5 6 11 11 8 7 9 9 7 8 9 8 10 12 12 15 17 18 23 25 25 24 25 24 25 22 21
6 6 7 7 9 10 8 8 9 9 9 9 8 9 10 11 10 11 11 12 12 13 13 13 12 12 11 11 11 11 12 15 16 16 15 13 11 11 11 9 9 10 10 9 9 9 9 9 11 9 9 9 8 7 6 7 9 12 4 7 11 10 5 6 8 9 8 8 7 6 8 8 9 9 10 12 14 20 22 25 20 25 24 23 22
6 7 7 7 7 8 11 11 9 9 8 7 12 22 19 14 13 12 12 12 12 12 12 12 11 11 10 11 11 17 20 20 20 22 24 24 23 17 13 11 10 11 11 11 11 10 9 11 11 11 11 11 10 7 8 9 8 6 6 5 10 9 5 8 10 7 7 7 7 8 9 6 8 10 10 12 12 13 12 14 14 16 20 26 27
8 8 8 9 9 10 10 11 12 10 9 9 20 20 22 23 16 12 11 11 11 11 12 11 13 12 11 10 10 14 16 16 17 23 23 24 24 26 27 26 20 15 12 13 12 10 11 11 11 11 11 13 13 8 8 8 7 8 10 9 9 9 8 8 13 4 7 10 9 7 10 7 9 11 11 12 12 11 12 14 18 21 22 24 28
9 8 9 9 10 9 9 11 11 10 10 14 21 22 23 23 21 16 12 12 10 12 11 11 11 11 12 11 11 9 10 12 14 13 17 22 25 25 25 24 25 26 24 17 14 13 12 12 13 13 11 13 13 9 7 6 7 7 8 9 9 10 10 10 10 12 3 11 7 9 12 7 9 11 12 12 11 10 12 14 20 21 23 23 26
9 9 10 11 10 9 10 12 11 11 10 16 20 22 22 23 23 20 12 12 11 11 10 12 11 12 10 11 10 11 10 22 18 14 14 14 18 24 26 26 26 26 25 26 27 19 13 14 14 16 14 13 14 12 9 8 4 8 7 9 9 10 10 11 12 11 2 8 9 9 12 8 9 11 13 12 9 9 11 15 21 22 24 26 30
7 8 7 9 8 9 9 11 12 11 10 16 22 23 23 24 23 21 14 15 15 14 15 14 14 15 15 13 13 13 12 12 12 12 11 12 12 12 13 12 12 14 21 25 26 31 25 17 15 16 16 13 15 13 10 5 8 9 8 10 8 10 10 13 13 11 4 9 10 8 9 7 8 9 12 11 7 9 10 14 22 24 25 27 29
8 8 8 9 8 8 9 10 11 12 10 20 22 24 24 24 24 22 14 14 14 13 13 12 13 12 13 14 15 17 17 15 13 17 17 15 14 14 15 15 15 16 16 16 15 13 14 14 15 17 17 16 15 15 13 8 11 11 10 11 10 10 11 10 10 9 6 7 7 7 13 9 6 8 12 8 4 8 10 13 22 24 26 27 27
5 6 7 6 9 10 9 10 11 12 11 21 23 23 25 24 26 16 13 13 13 13 13 13 13 13 13 13 13 14 14 14 17 23 20 16 15 16 17 16 14 13 14 16 23 22 19 16 15 15 16 16 17 15 13 11 10 10 9 8 6 7 8 10 12 7 10 7 10 10 9 11 6 10 10 4 7 9 9 8 15 25 25 26 27
7 7 7 8 7 9 11 10 11 12 11 16 23 24 25 26 21 13 13 12 11 13 13 13 13 13 13 13 14 15 15 14 19 23 24 22 15 15 14 14 13 13 15 15 23 28 29 30 31 32 33 34 33 32 30 29 19 11 8 9 12 9 11 11 12 10 11 6 7 10 10 12 6 7 7 3 7 9 8 8 9 16 23 25 26
8 7 8 8 7 7 10 11 10 12 12 16 23 24 25 26 22 15 12 11 13 13 13 13 12 12 13 22 19 16 16 16 22 25 25 20 15 14 14 16 18 15 13 11 11 15 26 32 33 33 32 31 32 32 31 31 32 21 12 15 13 11 13 11 14 12 9 7 7 11 8 12 6 3 4 2 3 4 6 7 7 8 16 20 25
8 7 8 8 9 8 8 10 15 15 12 14 22 24 26 24 20 13 11 10 12 13 13 13 11 12 14 15 23 22 20 21 25 23 24 20 15 14 12 13 14 15 14 14 13 15 15 15 14 16 18 23 21 18 17 28 29 23 16 15 12 13 12 13 14 10 10 10 10 13 10 8 11 5 7 1 7 5 5 6 8 8 8 8 11
Wind_Direction
187 208 199 197 192 184 179 189 180 171 152 192 170 165 165 166 169 172 175 169 176 211 289 294 297 297 256 235 224 214 232 237 230 244 260 266 285 283 282 283 284 288 283 282 244 219 226 230 234 225 219 227 207 224 238 242 220 234 243 224 238 254 240 244 295 294 290 271 272 272 289 255 249 233 231 244 241 219 61 75 43 39 41 32 31
185 182 188 210 190 180 190 188 186 167 177 192 191 171 176 168 166 168 179 180 186 206 188 281 292 286 280 242 229 223 203 211 227 234 259 283 283 290 294 295 297 292 283 282 273 235 232 232 232 233 232 234 211 221 238 244 225 223 252 266 223 264 274 278 277 286 281 271 240 253 264 275 273 232 239 240 267 251 254 251 206 32 25 37 24
182 180 194 190 191 187 210 189 184 190 191 200 175 188 176 184 184 183 186 186 207 199 174 252 277 286 273 256 240 230 227 221 226 241 254 264 283 287 301 307 308 308 305 287 286 269 243 245 235 240 242 244 232 233 242 250 233 205 219 257 249 237 248 264 273 272 270 270 267 236 262 273 268 258 247 241 245 246 256 266 313 245 358 33 15
181 181 189 188 190 197 201 194 212 196 193 192 184 182 182 184 163 172 182 181 186 193 174 205 265 266 273 258 266 239 239 228 222 224 234 250 257 275 288 295 312 316 320 315 281 269 251 248 245 243 252 249 235 239 246 250 251 230 225 240 255 246 250 242 249 271 257 260 251 242 258 265 262 246 243 246 247 246 240 241 248 244 278 321 336
201 189 185 188 191 194 198 208 214 204 200 190 165 151 131 126 131 111 121 116 153 252 1 317 275 276 278 260 266 252 247 229 232 225 230 231 238 240 253 252 268 302 322 331 342 323 274 257 262 257 248 244 242 242 242 246 252 231 241 233 244 229 261 240 226 245 244 247 242 232 243 257 255 253 242 244 252 249 246 239 239 233 247 273 304
191 201 191 195 195 197 198 205 208 205 180 163 176 168 160 157 175 146 173 177 208 230 230 268 265 292 289 282 281 256 247 238 233 228 232 236 232 228 228 229 227 232 259 312 341 337 304 272 280 292 264 245 241 247 245 242 246 240 242 250 218 230 240 231 249 250 242 246 247 239 242 250 252 254 250 242 242 251 247 244 241 241 246 249 303
198 191 189 189 193 206 207 216 199 178 180 187 173 163 161 186 158 180 167 200 211 229 220 248 263 266 264 281 272 281 280 256 263 259 251 253 258 246 240 232 223 220 217 219 270 303 337 328 291 301 298 262 242 249 261 242 245 252 250 276 208 245 259 238 243 239 242 251 244 249 247 250 250 250 252 245 244 251 251 244 242 249 252 241 251
202 191 192 187 193 201 214 196 180 172 183 169 158 177 184 174 184 170 177 225 208 244 205 236 248 260 285 296 289 301 289 294 288 282 265 278 259 260 256 252 244 231 223 220 224 252 299 335 329 313 347 337 281 253 254 244 238 242 249 245 234 241 251 269 260 241 240 250 261 258 253 247 249 249 247 252 248 250 252 250 252 313 279 256 255
196 191 187 201 204 210 212 190 167 178 179 178 187 186 177 179 177 200 195 201 204 231 233 222 231 240 269 286 290 306 292 288 279 264 284 260 263 266 265 259 256 254 242 241 243 255 281 280 289 328 344 324 307 286 261 244 241 241 241 235 238 247 249 249 265 254 259 245 250 252 256 254 246 250 250 252 252 252 253 252 249 252 254 256 255
200 195 207 209 207 208 190 170 169 172 180 180 197 138 164 173 194 207 201 189 203 213 230 230 233 248 261 256 256 258 265 278 269 271 264 266 261 254 246 267 276 262 256 247 241 245 250 260 272 299 308 304 285 272 273 282 276 246 232 232 234 240 242 238 238 248 254 257 250 243 244 259 251 246 252 251 251 252 254 254 258 264 264 260 254
336 316 234 209 199 201 191 192 176 178 172 171 152 162 169 192 199 208 214 220 211 215 221 195 226 242 255 268 293 270 262 251 260 269 268 251 251 254 283 269 263 257 253 248 250 241 239 251 259 267 275 283 281 271 265 260 287 298 248 231 232 232 241 244 239 246 250 251 250 250 249 250 261 252 243 248 253 260 261 264 264 261 259 253 241
26 16 357 351 328 311 262 136 171 162 174 181 193 187 195 190 207 194 195 234 25 151 138 147 153 284 293 306 275 253 256 244 255 256 257 254 253 276 260 254 246 253 255 251 248 241 237 237 234 237 246 260 270 284 288 303 316 287 285 247 235 234 234 228 227 233 240 246 250 251 251 251 253 255 253 250 252 256 260 262 260 257 252 247 245
25 27 23 20 20 20 26 21 14 354 267 236 222 210 215 195 139 154 182 194 235 151 150 123 113 306 324 278 282 252 255 252 252 252 246 247 265 263 251 248 246 244 244 250 250 251 246 238 235 237 241 245 259 266 271 271 281 270 264 262 250 243 238 236 229 226 231 237 243 249 249 250 249 250 251 253 256 255 255 256 255 252 249 248 247
30 32 31 28 24 24 28 25 31 19 5 10 11 1 1 23 110 142 190 190 224 162 169 129 2 224 271 321 315 291 248 236 251 250 240 236 231 235 244 242 250 241 248 244 250 247 245 242 242 241 239 237 242 246 258 261 265 265 259 253 249 246 247 241 233 226 225 230 238 243 248 247 247 248 250 254 254 255 256 253 251 251 249 248 248
25 26 32 28 29 27 21 19 37 31 19 15 23 22 25 2 327 265 214 14 227 153 181 203 204 115 117 9 303 341 331 309 270 257 248 234 226 234 235 240 243 239 231 237 242 240 243 244 246 242 243 239 241 243 247 251 248 252 256 259 262 256 248 246 243 237 230 230 225 238 243 244 245 248 251 254 256 255 254 254 254 250 248 248 248
24 28 30 31 27 25 17 21 23 35 38 15 19 9 27 10 353 318 360 303 249 242 205 219 152 143 276 212 236 68 311 293 287 278 229 227 225 236 228 232 236 238 223 233 236 237 240 234 238 240 243 244 243 244 246 246 251 252 254 256 259 258 255 251 251 252 251 241 229 233 238 239 241 243 247 251 255 253 250 251 251 248 247 247 247
25 26 26 25 26 23 21 17 19 12 16 14 8 8 122 183 215 258 260 270 287 297 317 247 246 255 184 110 313 296 230 259 339 276 335 253 244 240 246 243 246 237 232 245 246 239 236 238 239 240 241 240 240 240 242 245 249 250 255 254 251 252 253 252 250 251 255 260 221 218 233 235 237 243 244 248 251 251 248 245 248 248 247 246 246
25 23 23 22 24 20 20 19 17 10 13 8 353 351 340 309 248 220 252 251 276 329 306 232 242 258 275 296 171 254 274 261 1 290 330 226 271 281 244 252 266 267 256 260 250 247 238 245 237 239 235 236 237 236 234 239 239 245 242 251 248 244 246 249 251 249 254 250 247 233 222 226 235 237 243 245 247 248 247 246 246 247 247 246 245
24 25 20 19 21 21 19 21 20 17 5 10 7 1 351 344 343 278 259 285 303 273 270 270 224 261 255 254 258 209 117 345 268 355 299 323 301 264 264 243 238 237 246 246 244 245 245 237 241 237 236 234 237 237 237 238 238 236 239 242 245 245 244 244 246 253 253 250 246 243 230 227 229 234 236 240 244 245 245 245 247 247 246 245 244
27 23 22 19 17 20 19 22 24 18 16 22 11 355 354 351 358 355 338 313 280 259 270 261 249 270 212 246 255 240 205 264 200 249 280 295 290 314 259 261 247 239 239 246 242 235 241 232 235 237 236 237 234 234 235 236 237 242 245 243 244 246 246 243 242 244 253 256 254 247 241 225 216 224 231 233 240 244 244 244 248 247 245 244 243
26 23 20 18 18 15 16 21 23 18 20 20 17 13 13 6 1 357 354 333 305 286 293 283 274 268 276 268 243 250 241 230 230 175 258 277 280 274 281 319 252 251 249 240 247 240 235 237 231 232 233 237 227 230 232 233 234 234 240 240 243 245 246 245 242 240 244 252 255 256 258 251 223 228 228 228 232 238 241 241 245 249 247 242 242
23 24 22 17 16 14 16 16 14 15 20 20 20 18 14 11 6 356 349 344 330 317 291 291 290 293 280 294 289 296 290 270 219 234 249 225 262 275 278 281 284 262 227 245 244 239 236 233 233 230 234 235 230 227 228 229 229 228 232 234 238 243 247 249 247 242 240 244 251 254 258 264 244 228 227 225 227 230 235 239 242 244 246 244 241
24 25 26 18 17 18 16 13 14 15 15 15 15 13 12 8 2 4 4 358 343 337 328 308 297 295 290 276 273 268 268 266 263 226 238 260 271 268 267 248 248 274 253 246 245 246 234 225 231 236 234 235 234 226 226 230 230 228 227 224 230 235 240 244 246 246 244 243 244 251 253 258 254 229 224 223 223 226 228 231 238 241 242 241 239
30 26 24 17 19 18 17 18 18 13 13 4 10 10 6 8 12 12 0 352 352 353 341 331 325 313 301 290 279 277 276 273 277 265 255 263 263 277 282 294 277 233 265 285 247 240 234 226 225 231 233 234 234 224 228 229 231 230 229 228 226 232 237 240 241 242 244 243 243 245 247 246 243 224 223 221 221 221 224 229 234 238 241 240 236
19 22 15 14 16 18 18 19 15 14 9 13 11 12 10 10 9 4 3 4 354 349 343 328 327 321 314 313 306 295 283 283 279 272 270 278 276 283 281 270 274 286 272 234 273 272 230 231 228 229 233 232 234 225 224 227 232 229 226 230 226 230 236 240 243 244 240 239 240 242 241 235 227 220 223 224 225 226 225 226 230 235 238 238 236
14 18 0 1 14 17 18 16 14 9 10 10 14 15 16 16 11 8 1 355 353 352 336 325 322 307 309 310 309 307 305 303 293 289 281 279 275 271 286 279 271 281 276 282 264 285 269 231 227 229 228 231 234 229 225 228 232 232 223 223 226 228 232 236 239 242 242 238 233 234 235 228 223 220 219 221 225 228 229 230 229 230 234 236 236
15 0 1 8 9 10 11 13 7 4 2 6 6 11 15 14 20 7 4 5 356 352 348 346 333 326 323 312 308 306 297 300 299 290 288 274 274 280 284 291 290 280 284 247 271 222 259 270 227 236 227 232 230 229 228 226 230 232 224 222 228 226 228 233 236 237 238 237 232 228 231 225 218 217 215 219 222 224 228 231 231 232 234 235 235
8 8 5 8 8 5 5 6 1 0 360 359 359 3 2 9 6 10 4 3 357 354 348 345 333 326 319 313 320 305 302 292 292 288 283 275 277 283 280 277 283 290 287 285 275 270 194 242 288 228 227 226 230 226 228 229 233 228 221 218 222 226 224 229 233 235 235 235 232 227 227 226 221 216 216 217 220 223 226 231 234 234 236 240 239
3 4 359 3 3 5 2 359 358 355 353 353 353 354 354 360 360 354 359 350 353 346 338 345 326 324 322 315 303 300 300 304 299 285 278 281 269 266 262 264 271 276 288 290 281 282 267 207 236 271 217 228 231 230 229 225 230 224 218 216 222 227 222 225 230 232 233 233 232 227 222 224 223 217 217 216 216 220 224 227 229 230 234 244 249
359 345 355 357 356 359 357 349 347 348 347 343 348 346 350 349 348 344 337 341 340 334 338 327 320 322 311 313 304 298 291 297 293 292 290 280 277 265 257 257 249 260 273 279 284 273 288 260 237 267 256 241 238 243 224 232 232 226 219 216 222 228 224 224 227 230 232 233 232 229 226 223 219 218 217 219 220 221 223 226 225 223 226 235 247
3 360 0 357 356 351 352 339 337 336 336 337 340 340 344 341 341 337 337 345 337 328 325 333 319 323 315 312 306 297 291 293 294 293 283 278 273 270 265 247 250 243 258 267 277 275 183 276 259 237 256 263 242 260 270 253 244 230 225 221 227 229 229 229 229 231 232 232 232 232 229 229 227 221 220 220 223 224 225 225 225 222 222 226 235
358 356 357 352 349 347 344 340 334 332 329 326 327 326 328 331 330 334 330 336 335 330 323 318 310 316 314 309 300 295 295 296 292 287 285 275 267 271 266 262 259 243 243 253 257 272 259 281 280 290 255 267 269 255 262 264 249 240 231 228 233 234 233 233 230 227 230 231 230 231 230 228 229 228 229 226 223 227 228 227 225 224 223 223 227
351 347 347 343 339 338 335 333 331 328 328 327 329 326 325 321 320 315 316 324 325 323 327 325 324 312 301 296 295 291 290 285 280 283 282 277 273 262 260 264 263 254 245 252 261 275 272 218 269 263 275 259 282 217 249 254 260 247 233 232 233 230 230 228 229 229 228 229 230 229 230 228 227 227 229 230 224 225 227 227 227 226 225 223 223
349 335 334 330 328 326 328 325 326 327 325 324 326 331 327 324 319 318 317 315 310 306 310 307 313 319 319 312 296 285 281 276 277 275 272 277 271 270 263 251 258 260 233 252 265 269 280 262 273 264 271 200 263 173 228 247 253 245 240 234 229 228 231 230 230 231 227 229 229 230 230 230 229 227 227 230 231 224 223 226 226 226 226 224 223
330 327 323 326 326 328 327 325 325 325 324 322 324 328 326 326 322 320 320 317 312 309 307 298 295 296 300 302 304 305 303 290 274 267 271 268 264 262 264 251 256 257 249 239 260 272 277 280 240 271 250 247 229 248 224 243 245 243 248 242 229 229 228 227 231 238 230 231 232 232 232 231 231 230 230 227 227 231 226 222 224 224 225 227 225
323 321 325 317 316 315 311 311 313 313 317 317 319 321 320 320 319 315 316 316 310 305 297 296 297 293 287 288 285 289 298 299 295 288 274 268 267 264 263 259 251 259 251 249 245 260 277 282 269 252 264 251 261 244 245 253 251 256 239 253 240 240 232 222 225 232 231 233 234 235 234 232 231 230 229 228 226 227 231 227 222 221 222 225 226
307 312 312 304 302 300 303 304 305 305 303 306 309 312 314 313 309 308 306 306 304 300 296 292 288 287 285 279 282 284 282 282 285 287 285 278 271 270 268 266 260 258 256 246 254 253 267 271 278 258 258 261 263 265 224 246 257 247 251 244 237 239 239 235 232 230 228 231 234 234 236 235 234 232 230 227 225 227 228 230 228 222 220 221 224
309 303 301 310 309 309 311 308 305 304 303 306 308 309 311 311 307 303 300 297 297 293 291 288 284 280 280 281 282 280 277 273 276 278 282 282 280 270 268 268 264 261 262 257 252 257 258 266 269 281 255 264 271 263 231 220 247 259 258 251 249 240 239 245 233 229 221 223 224 231 235 237 237 235 233 231 230 226 229 229 230 228 220 218 220
329 328 328 325 324 320 315 314 311 310 309 309 312 308 304 301 299 299 298 296 290 289 286 286 284 278 273 273 276 277 275 272 272 272 276 278 281 280 275 273 268 267 266 262 257 258 260 268 271 259 270 251 244 269 252 211 239 240 256 270 265 232 222 229 246 227 224 236 237 232 231 230 235 237 236 234 233 230 228 230 229 229 227 219 218
333 334 333 330 327 328 320 318 316 318 317 318 317 313 307 306 304 298 295 293 292 289 287 283 283 283 283 280 274 271 269 270 273 273 271 274 273 275 277 278 278 274 270 271 268 261 263 266 266 276 256 266 255 250 291 5 275 267 229 239 256 252 230 226 228 234 218 221 231 229 232 234 236 239 241 239 235 231 230 228 226 225 224 222 219
331 326 325 328 326 322 320 321 322 322 324 324 325 325 321 314 309 303 301 297 295 294 290 287 283 281 277 277 280 280 275 272 264 266 266 263 269 275 272 272 273 273 274 273 270 268 267 265 272 267 271 265 253 251 249 236 238 253 234 196 247 255 252 244 238 220 219 217 229 232 231 217 229 229 230 234 233 230 230 227 226 223 220 220 219
329 327 331 333 326 327 327 324 326 327 323 323 321 318 316 313 310 305 299 294 291 287 287 287 282 277 276 278 278 279 282 284 285 284 283 280 274 269 270 269 268 269 268 269 270 267 266 268 265 270 270 264 260 237 236 237 242 259 262 227 248 257 237 254 259 225 198 207 220 231 232 207 213 231 225 232 233 226 229 226 223 218 216 217 219
337 339 337 335 340 335 330 327 326 326 323 321 319 318 316 312 308 302 298 293 287 284 281 281 284 287 285 282 282 287 287 287 288 289 287 285 283 281 279 276 273 266 266 267 264 262 264 262 265 264 262 267 263 246 235 242 231 223 236 236 246 256 245 246 263 251 178 185 215 236 246 199 197 226 227 228 229 221 225 228 223 220 217 216 218
340 341 338 338 335 333 327 324 320 321 318 318 319 317 314 312 309 305 297 290 287 285 282 283 284 288 290 290 288 284 282 287 289 287 284 285 287 286 284 280 277 273 269 266 268 268 259 260 262 260 260 258 267 255 238 230 233 225 231 237 238 243 250 246 251 257 191 186 191 219 247 198 187 221 233 230 226 221 225 224 222 221 218 215 218
334 335 333 331 328 329 326 322 320 320 316 316 316 316 313 311 309 307 297 289 286 284 284 286 287 289 290 290 291 285 284 288 287 285 287 288 287 286 285 284 281 277 274 271 268 266 266 261 259 263 254 261 263 258 238 236 202 225 221 235 234 239 242 249 251 256 189 185 189 222 243 219 178 217 232 232 221 219 230 227 223 222 221 221 222
328 322 321 321 322 323 323 320 316 316 310 312 313 312 311 309 308 306 299 298 296 294 296 298 301 301 299 299 294 290 285 280 277 279 277 277 279 279 281 280 280 276 275 271 269 267 265 264 262 260 260 253 256 264 256 224 224 228 222 235 224 237 237 242 249 255 185 184 190 208 253 229 191 212 238 240 203 218 224 220 221 222 221 221 222
323 321 323 321 319 318 318 315 310 308 306 309 311 310 310 309 308 307 302 300 297 294 295 295 292 289 291 293 294 294 296 296 295 294 293 292 291 289 285 281 277 276 273 270 263 260 260 258 259 261 264 262 261 259 263 239 234 238 229 231 224 228 238 249 259 255 233 195 202 199 249 248 150 206 239 232 169 217 227 222 222 222 223 223 223
303 307 306 307 310 313 312 310 306 303 304 309 309 309 309 309 309 307 304 298 295 293 294 297 296 296 293 290 287 285 281 280 286 288 286 282 276 275 273 272 271 267 265 264 268 267 264 258 254 255 257 261 261 260 258 251 245 247 248 250 244 236 239 246 250 242 240 195 192 205 243 255 164 205 241 185 178 221 223 216 225 226 226 225 225
311 312 307 308 309 307 307 305 302 300 299 307 309 309 310 309 309 303 299 297 295 296 296 300 300 300 301 302 303 303 303 304 304 302 299 296 293 286 280 278 275 272 272 274 276 279 278 274 271 268 267 265 264 262 260 258 253 234 232 235 237 225 231 240 246 242 241 190 195 201 228 252 208 203 242 154 195 222 218 211 216 227 228 228 227
310 307 308 305 301 300 299 299 298 298 299 305 308 308 308 306 305 303 301 295 295 297 298 296 296 296 297 299 301 299 296 293 295 292 291 289 277 271 270 272 273 268 265 268 270 269 270 272 273 274 273 271 268 265 263 261 258 250 225 232 231 226 233 228 243 238 243 214 198 190 210 239 239 173 221 262 242 237 219 207 201 210 223 232 231
296 303 302 300 298 295 290 291 298 299 297 303 306 305 304 303 303 296 294 289 290 295 298 297 295 296 295 295 293 293 291 291 293 295 297 299 295 292 284 274 270 268 271 276 275 276 276 274 271 268 263 262 264 264 263 261 258 253 243 237 229 228 230 229 235 241 249 236 211 176 203 230 232 187 192 197 247 233 195 198 200 198 202 210 227